sat.trackr.live / text

‹ back to catalog

STARLINK-3917

NORAD 52588 · 2022-051BE

PAYLOAD ACTIVE UNKNOWN

§ Identity

Operator
Country
US
Launch date
2022-05-13
Launch site
AFWTR
Launch vehicle
Mass (kg)
RCS (m²)

Purposes: comms

External: N2YO · Heavens-Above · Gunter

§ Orbital elements

Epoch: 2026-05-24T23:08:41.504928Z

Period
95.44 min
Inclination
53.2137°
Eccentricity
0.0000899
Mean motion
15.08838138 rev/d
Perigee alt
539.1 km
Apogee alt
540.4 km
Semi-major
6,917.9 km
B*
1.6827e-5
RAAN
136.7121°
Arg perigee
71.0820°
Mean anomaly
289.0269°
Rev number
22,310

§ Raw data

STARLINK-39171 52588U 22051BE  26144.96436927 -.00000020  00000+0  16827-4 0  99912 52588  53.2137 136.7121 0000899  71.0820 289.0269 15.08838138223105

JSON: /api/v1/satellites/52588 · /tle

For live sub-satellite position, see the globe view (requires WebGL).

§ Visibility from observer

Set your observer location to see the next 7 days of passes ≥ 10°. The values pass through the URL so the page stays shareable.

No JS? Fill the form by hand. The geolocation button needs JavaScript.